LEIBLEAL

Guest
Details From LEIB - Ibiza
To LEAL - Alicante
Flight Number -
Tags generated
Created
Modified
Stats Distance 97 nm / 180 km
Max Altitude 10,300 ft / 3,139 m
Waypoints 3
Social Downloads 7
Likes 0
Share VATSIM

Download

Looking for another format? Having issues loading an existing format? Contact us
Advertisement - Login to hide

Notes

Basic altitude profile: - Ascent Rate: 2500ft/min - Ascent Speed: 250kts - Cruise Altitude: 35000ft - Cruise Speed: 420kts - Descent Rate: 1500ft/min - Descent Speed: 250kts

Route

LEIB BRUNO LEAL

ID Type Via Altitude Latitude Longitude Leg Dist Tot Dist Heading (true) Name
O LEIB APT - 0 ft / 0 m 38.87287˚ 1.37304˚ - 0 nm - Ibiza
BRUNO FIX - 10,300 ft / 3,139 m 38.60830˚ 0.48333˚ 44 nm 44 nm 249° / 249° -
O LEAL APT - 0 ft / 0 m 38.28217˚ -0.55816˚ 52 nm 97 nm 249° / 248° Alicante

Altitude Profile

Advertisement - Login to hide

LEIB

Details ICAO LEIB (IBZ)
Name Ibiza
Region Spain
Timezone Europe/Madrid (UTC+1.0)
Stats Elevation 20 ft / 6 m (AMSL)
Location 38.872871° 1.373045°
Runways 1
Magnetic Variation 0.662° E

METAR

LEIB 141700Z 24013KT 9999 FEW023 15/10 Q1015 NOSIG

Decode

TAF

TAF LEIB 141400Z 1415/1515 23014KT 9999 FEW030 TX18/1512Z TN08/1506Z TEMPO 1415/1423 26015G25KT TEMPO 1509/1514 25015G25KT BECMG 1513/1515 32009KT

Decode

Departure Runways

ID Width Length Bearing (true) Bearing (mag) Surface Threshold Offset Overrun Length
06 148 ft / 45 m 9,153 ft / 2,790 m 61.85° 61.19° Asphalt 0 ft / 0 m 213 ft / 65 m
24 148 ft / 45 m 9,153 ft / 2,790 m 241.86° 241.20° Asphalt 0 ft / 0 m 197 ft / 60 m

LEAL

Details ICAO LEAL (ALC)
Name Alicante
Region Spain
Timezone Europe/Madrid (UTC+1.0)
Stats Elevation 141 ft / 43 m (AMSL)
Location 38.282169° -0.558157°
Runways 1
Magnetic Variation 0.183° E

METAR

LEAL 141700Z 30020KT CAVOK 16/07 Q1016 NOSIG

Decode

TAF

TAF TAF LEAL 141100Z 1412/1512 29014KT 9999 FEW030 TX20/1413Z TN10/1506Z TEMPO 1412/1416 29016G28KT BECMG 1420/1422 24011KT

Decode

Destination Runways

ID Width Length Bearing (true) Bearing (mag) Surface Threshold Offset Overrun Length
10 148 ft / 45 m 9,799 ft / 2,987 m 100.07° 99.89° Asphalt 0 ft / 0 m 164 ft / 50 m
28 148 ft / 45 m 9,799 ft / 2,987 m 280.09° 279.91° Asphalt 0 ft / 0 m 197 ft / 60 m

Approach Navaids

Runway Type Ident Frequency Range Bearing (true) Bearing (mag) Slope Elevation
10 Localiser IAT 110.30 MHz 18 nm / 33 km 100.09° 99.91° - 29 ft / 9 m (AMSL)
10 Glidescope IAT 110.30 MHz 10 nm / 19 km 100.09° 99.91° 3.00° 129 ft / 39 m (AMSL)
10 DME IAT 110.30 MHz 18 nm / 33 km - - - 129 ft / 39 m (AMSL)

Popular Alternatives